User: anonymous   Login
Location: Bettgenhausen
(50.6463°N, 7.5681°E)
Time: 21:30:48
(UTC+00:00)
Language:

STARLINK-1007 - Orbit

View from above orbital plane
View from above orbital plane
View from above satellite
View from above satellite

Ground track
Ground track

The orbit data is extracted from the following two-line orbital elements,

1 44713U 19074A   20158.58334491 -.00004548 +00000-0 -29327-3 0  9992
2 44713 052.9993 263.3426 0001184 107.1365 115.9695 15.05570204001760
Epoch (UTC): 06 June 2020 14:00:01
Eccentricity: 0.0001184
inclination: 52.9993°
perigee height: 549 km
apogee height: 550 km
right ascension of ascending node: 263.3426°
argument of perigee: 107.1365°
revolutions per day: 15.05570204
mean anomaly at epoch: 115.9695°
orbit number at epoch: 176

The dashed part of the orbit path shows where the satellite is in the earth's shadow,  

DLR